| time (UTC) | temp F | wind direction | speed knots | gust knots | rain 1hr in | rain 24hr in | rain mn in | humidity % | barometer mb |
| 20260906010219 | 57 | 280 | 4.3 | 0.0 | 0.00 | 0.00 | 0.00 | 76 | 1023.0 |
| 20260906003209 | 61 | 290 | 7.0 | 0.0 | 0.00 | 0.00 | 0.00 | 67 | 1023.0 |
| 20260906001942 | 61 | 290 | 6.1 | 0.0 | 0.00 | 0.00 | 0.00 | 63 | |
| 20260906000219 | 61 | 290 | 6.1 | 0.0 | 0.00 | 0.00 | 0.00 | 67 | 1023.0 |
| 20260905233209 | 59 | 290 | 1.7 | 0.0 | 0.00 | 0.00 | 0.00 | 72 | 1023.0 |
| 20260905231925 | 61 | 290 | 1.7 | 0.0 | 0.00 | 0.00 | 0.00 | 63 | |
| 20260905230220 | 59 | 270 | 2.6 | 0.0 | 0.00 | 0.00 | 0.00 | 67 | 1023.0 |
| 20260905223209 | 61 | 250 | 4.3 | 0.0 | 0.00 | 0.00 | 0.00 | 67 | 1023.0 |
| 20260905222344 | 61 | 250 | 4.3 | 0.0 | 0.00 | 0.00 | 0.00 | 67 | |
| 20260905220218 | 61 | 260 | 4.3 | 0.0 | 0.00 | 0.00 | 0.00 | 63 | 1023.0 |
| 20260905213209 | 61 | 280 | 7.0 | 0.0 | 0.00 | 0.00 | 0.00 | 59 | 1022.0 |
| 20260905211940 | 64 | 280 | 7.8 | 0.0 | 0.00 | 0.00 | 0.00 | 52 | |
| 20260905210218 | 63 | 280 | 7.8 | 0.0 | 0.00 | 0.00 | 0.00 | 55 | 1022.0 |
| 20260905210045 | 59 | 260 | 7.0 | 0.0 | 0.00 | 0.00 | 0.00 | 67 | 1021.0 |
| 20260905205123 | 59 | 260 | 7.0 | 0.0 | 0.00 | 0.00 | 0.00 | 67 | 1021.0 |
| 20260905204723 | 59 | 260 | 7.0 | 0.0 | 0.00 | 0.00 | 0.00 | 67 | 1021.0 |
| 20260905204124 | 59 | 260 | 7.0 | 0.0 | 0.00 | 0.00 | 0.00 | 67 | 1021.0 |
| 20260905203224 | 59 | 260 | 7.0 | 0.0 | 0.00 | 0.00 | 0.00 | 67 | 1021.0 |
| 20260905201942 | 63 | 260 | 6.1 | 0.0 | 0.00 | 0.00 | 0.00 | 55 | |
| 20260905200924 | 61 | 260 | 6.1 | 0.0 | 0.00 | 0.00 | 0.00 | 63 | 1021.0 |
| 20260905200327 | 61 | 260 | 6.1 | 0.0 | 0.00 | 0.00 | 0.00 | 63 | 1021.0 |
| 20260905195924 | 59 | 260 | 6.1 | 0.0 | 0.00 | 0.00 | 0.00 | 62 | 1021.0 |
| 20260905195224 | 59 | 260 | 6.1 | 0.0 | 0.00 | 0.00 | 0.00 | 62 | 1021.0 |
| 20260905194124 | 59 | 260 | 6.1 | 0.0 | 0.00 | 0.00 | 0.00 | 62 | 1021.0 |
| 20260905193437 | 59 | 260 | 6.1 | 0.0 | 0.00 | 0.00 | 0.00 | 62 | 1021.0 |
| 20260905193224 | 59 | 260 | 6.1 | 0.0 | 0.00 | 0.00 | 0.00 | 62 | 1021.0 |
| 20260905192725 | 59 | 270 | 6.1 | 0.0 | 0.00 | 0.00 | 0.00 | 62 | 1021.0 |
| 20260905192411 | 63 | 260 | 6.1 | 0.0 | 0.00 | 0.00 | 0.00 | 55 | |
| 20260905192131 | 59 | 270 | 6.1 | 0.0 | 0.00 | 0.00 | 0.00 | 62 | 1021.0 |
| 20260905191624 | 59 | 270 | 6.1 | 0.0 | 0.00 | 0.00 | 0.00 | 62 | 1021.0 |
| 20260905181958 | 66 | 280 | 4.3 | 0.0 | 0.00 | 0.00 | 0.00 | 45 | |
| 20260905181324 | 66 | 280 | 5.2 | 0.0 | 0.00 | 0.00 | 0.00 | 45 | 1020.0 |
| 20260905181124 | 66 | 280 | 5.2 | 0.0 | 0.00 | 0.00 | 0.00 | 45 | 1020.0 |
| 20260905180724 | 66 | 280 | 5.2 | 0.0 | 0.00 | 0.00 | 0.00 | 45 | 1020.0 |
| 20260905180326 | 66 | 280 | 5.2 | 0.0 | 0.00 | 0.00 | 0.00 | 45 | 1020.0 |
| 20260905180126 | 68 | 290 | 8.7 | 0.0 | 0.00 | 0.00 | 0.00 | 42 | 1019.0 |
| 20260905175424 | 68 | 290 | 8.7 | 0.0 | 0.00 | 0.00 | 0.00 | 42 | 1019.0 |
| 20260905175224 | 68 | 290 | 8.7 | 0.0 | 0.00 | 0.00 | 0.00 | 42 | 1019.0 |
| 20260905174724 | 68 | 290 | 8.7 | 0.0 | 0.00 | 0.00 | 0.00 | 42 | 1019.0 |
| 20260905174124 | 68 | 290 | 8.7 | 0.0 | 0.00 | 0.00 | 0.00 | 42 | 1019.0 |
| 20260905173438 | 68 | 290 | 8.7 | 0.0 | 0.00 | 0.00 | 0.00 | 42 | 1019.0 |
| 20260905172724 | 70 | 300 | 7.0 | 0.0 | 0.00 | 0.00 | 0.00 | 43 | 1019.0 |
| 20260905172131 | 70 | 300 | 7.0 | 0.0 | 0.00 | 0.00 | 0.00 | 43 | 1019.0 |
| 20260905171958 | 70 | 300 | 6.1 | 0.0 | 0.00 | 0.00 | 0.00 | 40 | |
| 20260905171546 | 70 | 300 | 7.0 | 0.0 | 0.00 | 0.00 | 0.00 | 43 | 1019.0 |
| 20260905170538 | 70 | 300 | 7.0 | 0.0 | 0.00 | 0.00 | 0.00 | 43 | 1019.0 |
| 20260905170221 | 70 | 300 | 7.0 | 0.0 | 0.00 | 0.00 | 0.00 | 43 | 1019.0 |
| 20260905163824 | 70 | 290 | 12.2 | 0.0 | 0.00 | 0.00 | 0.00 | 43 | 1019.0 |
| 20260905163216 | 70 | 290 | 12.2 | 0.0 | 0.00 | 0.00 | 0.00 | 43 | 1019.0 |
| 20260905162923 | 72 | 280 | 13.0 | 0.0 | 0.00 | 0.00 | 0.00 | 40 | 1018.0 |
| 20260905162355 | 72 | 290 | 12.2 | 0.0 | 0.00 | 0.00 | 0.00 | 40 | |
| 20260905162231 | 72 | 280 | 13.0 | 0.0 | 0.00 | 0.00 | 0.00 | 40 | 1018.0 |
| 20260905161624 | 72 | 280 | 13.0 | 0.0 | 0.00 | 0.00 | 0.00 | 40 | 1018.0 |
| 20260905161125 | 72 | 280 | 13.0 | 0.0 | 0.00 | 0.00 | 0.00 | 40 | 1018.0 |
| 20260905160824 | 72 | 280 | 13.0 | 0.0 | 0.00 | 0.00 | 0.00 | 40 | 1018.0 |
| 20260905160325 | 72 | 280 | 13.0 | 0.0 | 0.00 | 0.00 | 0.00 | 40 | 1018.0 |
| 20260905154724 | 72 | 300 | 13.9 | 0.0 | 0.00 | 0.00 | 0.00 | 40 | 1018.0 |
| 20260905154545 | 72 | 300 | 13.9 | 0.0 | 0.00 | 0.00 | 0.00 | 40 | 1018.0 |
| 20260905154224 | 72 | 300 | 13.9 | 0.0 | 0.00 | 0.00 | 0.00 | 40 | 1018.0 |
| 20260905151932 | 72 | 290 | 12.2 | 0.0 | 0.00 | 0.00 | 0.00 | 40 | |
| 20260905151828 | 72 | 280 | 13.9 | 24.3 | 0.00 | 0.00 | 0.00 | 40 | 1018.0 |
| 20260905151125 | 72 | 280 | 13.9 | 24.3 | 0.00 | 0.00 | 0.00 | 40 | 1018.0 |
| 20260905150623 | 72 | 280 | 13.9 | 24.3 | 0.00 | 0.00 | 0.00 | 40 | 1018.0 |
| 20260905145923 | 73 | 280 | 15.6 | 0.0 | 0.00 | 0.00 | 0.00 | 40 | 1018.0 |
| 20260905145624 | 73 | 280 | 15.6 | 0.0 | 0.00 | 0.00 | 0.00 | 40 | 1018.0 |
| 20260905145123 | 73 | 280 | 15.6 | 0.0 | 0.00 | 0.00 | 0.00 | 40 | 1018.0 |
| 20260905144223 | 73 | 280 | 15.6 | 0.0 | 0.00 | 0.00 | 0.00 | 40 | 1018.0 |
| 20260905143725 | 73 | 280 | 15.6 | 0.0 | 0.00 | 0.00 | 0.00 | 40 | 1018.0 |
| 20260905142131 | 72 | 280 | 13.0 | 22.6 | 0.00 | 0.00 | 0.00 | 43 | 1018.0 |
| 20260905141850 | 72 | 290 | 13.9 | 22.6 | 0.00 | 0.00 | 0.00 | 40 | |
| 20260905140437 | 72 | 280 | 13.0 | 22.6 | 0.00 | 0.00 | 0.00 | 43 | 1018.0 |
| 20260905140127 | 72 | 290 | 8.7 | 19.1 | 0.00 | 0.00 | 0.00 | 46 | 1019.0 |
| 20260905135046 | 72 | 290 | 8.7 | 19.1 | 0.00 | 0.00 | 0.00 | 46 | 1019.0 |
| 20260905134623 | 72 | 290 | 8.7 | 19.1 | 0.00 | 0.00 | 0.00 | 46 | 1019.0 |
| 20260905134224 | 72 | 290 | 8.7 | 19.1 | 0.00 | 0.00 | 0.00 | 46 | 1019.0 |
| 20260905133825 | 72 | 290 | 8.7 | 19.1 | 0.00 | 0.00 | 0.00 | 46 | 1019.0 |
| 20260905133437 | 72 | 290 | 8.7 | 19.1 | 0.00 | 0.00 | 0.00 | 46 | 1019.0 |
| 20260905133227 | 72 | 290 | 8.7 | 19.1 | 0.00 | 0.00 | 0.00 | 46 | 1019.0 |
| 20260905133124 | 70 | 280 | 11.3 | 0.0 | 0.00 | 0.00 | 0.00 | 49 | 1019.0 |
| 20260905132227 | 70 | 280 | 11.3 | 0.0 | 0.00 | 0.00 | 0.00 | 49 | 1019.0 |
| 20260905132141 | 70 | 290 | 12.2 | 0.0 | 0.00 | 0.00 | 0.00 | 49 | |
| 20260905131623 | 70 | 280 | 11.3 | 0.0 | 0.00 | 0.00 | 0.00 | 49 | 1019.0 |
| 20260905131124 | 70 | 280 | 11.3 | 0.0 | 0.00 | 0.00 | 0.00 | 49 | 1019.0 |
| 20260905130724 | 70 | 280 | 11.3 | 0.0 | 0.00 | 0.00 | 0.00 | 49 | 1019.0 |
| 20260905130225 | 70 | 280 | 11.3 | 0.0 | 0.00 | 0.00 | 0.00 | 49 | 1019.0 |
| 20260905125623 | 72 | 270 | 14.8 | 0.0 | 0.00 | 0.00 | 0.00 | 46 | 1019.0 |
| 20260905125424 | 72 | 270 | 14.8 | 0.0 | 0.00 | 0.00 | 0.00 | 46 | 1019.0 |
| 20260905125224 | 72 | 270 | 14.8 | 0.0 | 0.00 | 0.00 | 0.00 | 46 | 1019.0 |
| 20260905124923 | 72 | 270 | 14.8 | 0.0 | 0.00 | 0.00 | 0.00 | 46 | 1019.0 |
| 20260905124545 | 72 | 270 | 14.8 | 0.0 | 0.00 | 0.00 | 0.00 | 46 | 1019.0 |
| 20260905124045 | 72 | 270 | 14.8 | 0.0 | 0.00 | 0.00 | 0.00 | 46 | 1019.0 |
| 20260905123624 | 72 | 270 | 14.8 | 0.0 | 0.00 | 0.00 | 0.00 | 46 | 1019.0 |
| 20260905123324 | 72 | 270 | 14.8 | 0.0 | 0.00 | 0.00 | 0.00 | 46 | 1019.0 |
| 20260905123124 | 70 | 270 | 13.9 | 0.0 | 0.00 | 0.00 | 0.00 | 52 | 1019.0 |
| 20260905122131 | 70 | 270 | 13.9 | 0.0 | 0.00 | 0.00 | 0.00 | 52 | 1019.0 |
| 20260905122053 | 70 | 270 | 13.9 | 0.0 | 0.00 | 0.00 | 0.00 | 49 | |
| 20260905121735 | 70 | 270 | 13.9 | 0.0 | 0.00 | 0.00 | 0.00 | 52 | 1019.0 |
| 20260905121124 | 70 | 270 | 13.9 | 0.0 | 0.00 | 0.00 | 0.00 | 52 | 1019.0 |
| 20260905120539 | 70 | 270 | 13.9 | 0.0 | 0.00 | 0.00 | 0.00 | 52 | 1019.0 |
| 20260905115828 | 70 | 270 | 17.4 | 0.0 | 0.00 | 0.00 | 0.00 | 46 | 1019.0 |
| 20260905114045 | 70 | 270 | 17.4 | 0.0 | 0.00 | 0.00 | 0.00 | 46 | 1019.0 |
| 20260905113216 | 70 | 270 | 17.4 | 0.0 | 0.00 | 0.00 | 0.00 | 46 | 1019.0 |
| 20260905112724 | 70 | 260 | 17.4 | 0.0 | 0.00 | 0.00 | 0.00 | 49 | 1019.0 |
| 20260905112230 | 70 | 260 | 17.4 | 0.0 | 0.00 | 0.00 | 0.00 | 49 | 1019.0 |
| 20260905111956 | 70 | 260 | 19.1 | 28.7 | 0.00 | 0.00 | 0.00 | 49 | |
| 20260905111831 | 70 | 260 | 17.4 | 0.0 | 0.00 | 0.00 | 0.00 | 49 | 1019.0 |
| 20260905110217 | 70 | 260 | 17.4 | 0.0 | 0.00 | 0.00 | 0.00 | 49 | 1019.0 |
| 20260905105224 | 68 | 270 | 13.9 | 0.0 | 0.00 | 0.00 | 0.00 | 56 | 1019.0 |
| 20260905105046 | 68 | 270 | 13.9 | 0.0 | 0.00 | 0.00 | 0.00 | 56 | 1019.0 |
| 20260905104624 | 68 | 270 | 13.9 | 0.0 | 0.00 | 0.00 | 0.00 | 56 | 1019.0 |
| 20260905104324 | 68 | 270 | 13.9 | 0.0 | 0.00 | 0.00 | 0.00 | 56 | 1019.0 |
| 20260905103217 | 68 | 270 | 13.9 | 0.0 | 0.00 | 0.00 | 0.00 | 56 | 1019.0 |
| 20260905102824 | 68 | 260 | 15.6 | 0.0 | 0.00 | 0.00 | 0.00 | 60 | 1019.0 |
| 20260905102433 | 68 | 270 | 15.6 | 0.0 | 0.00 | 0.00 | 0.00 | 60 | |
| 20260905102329 | 68 | 260 | 15.6 | 0.0 | 0.00 | 0.00 | 0.00 | 60 | 1019.0 |
| 20260905101924 | 68 | 260 | 15.6 | 0.0 | 0.00 | 0.00 | 0.00 | 60 | 1019.0 |
| 20260905101424 | 68 | 260 | 15.6 | 0.0 | 0.00 | 0.00 | 0.00 | 60 | 1019.0 |
| 20260905100824 | 68 | 260 | 15.6 | 0.0 | 0.00 | 0.00 | 0.00 | 60 | 1019.0 |
| 20260905100328 | 68 | 260 | 15.6 | 0.0 | 0.00 | 0.00 | 0.00 | 60 | 1019.0 |
| 20260905095224 | 64 | 280 | 14.8 | 0.0 | 0.00 | 0.00 | 0.00 | 67 | 1019.0 |
| 20260905094824 | 64 | 280 | 14.8 | 0.0 | 0.00 | 0.00 | 0.00 | 67 | 1019.0 |
| 20260905094223 | 64 | 280 | 14.8 | 0.0 | 0.00 | 0.00 | 0.00 | 67 | 1019.0 |
| 20260905093725 | 64 | 280 | 14.8 | 0.0 | 0.00 | 0.00 | 0.00 | 67 | 1019.0 |
| 20260905092424 | 66 | 260 | 17.4 | 0.0 | 0.00 | 0.00 | 0.00 | 68 | 1019.0 |
| 20260905092033 | 64 | 280 | 15.6 | 0.0 | 0.00 | 0.00 | 0.00 | 67 | |
| 20260905091937 | 66 | 260 | 17.4 | 0.0 | 0.00 | 0.00 | 0.00 | 68 | 1019.0 |
| 20260905090825 | 66 | 260 | 17.4 | 0.0 | 0.00 | 0.00 | 0.00 | 68 | 1019.0 |
| 20260905090220 | 66 | 260 | 17.4 | 0.0 | 0.00 | 0.00 | 0.00 | 68 | 1019.0 |
| 20260905084223 | 64 | 270 | 14.8 | 0.0 | 0.00 | 0.00 | 0.00 | 72 | 1019.0 |
| 20260905083217 | 64 | 270 | 14.8 | 0.0 | 0.00 | 0.00 | 0.00 | 72 | 1019.0 |
| 20260905081945 | 64 | 260 | 15.6 | 0.0 | 0.00 | 0.00 | 0.00 | 77 | |
| 20260905080219 | 64 | 260 | 15.6 | 0.0 | 0.00 | 0.00 | 0.00 | 72 | 1018.0 |
| 20260905073216 | 61 | 250 | 13.0 | 0.0 | 0.00 | 0.00 | 0.00 | 82 | 1018.0 |
| 20260905072247 | 61 | 250 | 12.2 | 0.0 | 0.00 | 0.00 | 0.00 | 82 | |
| 20260905070218 | 61 | 250 | 12.2 | 0.0 | 0.00 | 0.00 | 0.00 | 82 | 1018.0 |
| 20260905063217 | 59 | 250 | 7.0 | 0.0 | 0.00 | 0.00 | 0.00 | 87 | 1018.0 |
| 20260905061946 | 59 | 250 | 7.8 | 0.0 | 0.00 | 0.00 | 0.00 | 87 | |
| 20260905060219 | 59 | 250 | 7.8 | 0.0 | 0.00 | 0.00 | 0.00 | 87 | 1018.0 |
| 20260905053209 | 59 | 250 | 11.3 | 0.0 | 0.00 | 0.00 | 0.00 | 82 | 1017.0 |
| 20260905051945 | 59 | 250 | 10.4 | 0.0 | 0.00 | 0.00 | 0.00 | 82 | |
| 20260905050220 | 59 | 230 | 8.7 | 0.0 | 0.00 | 0.00 | 0.00 | 82 | 1017.0 |
| 20260905043210 | 59 | 220 | 7.8 | 0.0 | 0.00 | 0.00 | 0.00 | 87 | 1017.0 |
| 20260905042348 | 61 | 270 | 7.8 | 0.0 | 0.00 | 0.00 | 0.00 | 87 | |
| 20260905040220 | 61 | 270 | 7.8 | 0.0 | 0.00 | 0.00 | 0.00 | 87 | 1017.0 |
| 20260905033210 | 63 | 290 | 5.2 | 0.0 | 0.00 | 0.00 | 0.00 | 88 | 1017.0 |
| 20260905031945 | 61 | 200 | 4.3 | 0.0 | 0.00 | 0.00 | 0.00 | 93 | |
| 20260905031904 | 61 | 240 | 2.6 | 0.0 | 0.00 | 0.00 | 0.00 | 93 | 1016.0 |
| 20260905030219 | 63 | 200 | 4.3 | 0.0 | 0.00 | 0.00 | 0.00 | 88 | 1015.0 |
| 20260905023210 | 63 | 240 | 6.1 | 0.0 | 0.00 | 0.00 | 0.00 | 88 | 1016.0 |
| 20260905021945 | 63 | 290 | 6.1 | 0.0 | 0.00 | 0.00 | 0.00 | 88 | |
| 20260905020218 | 63 | 290 | 5.2 | 0.0 | 0.00 | 0.00 | 0.00 | 88 | 1016.0 |
| 20260905013209 | 63 | 310 | 4.3 | 0.0 | 0.00 | 0.00 | 0.00 | 88 | 1015.0 |
| 20260905012247 | 64 | 280 | 6.1 | 0.0 | 0.00 | 0.00 | 0.00 | 82 |